Desroches Airport

Jump to: basic info | weather | runways | comments

Related pages: nearby airports | nearby navaids | notams | map

Basic information (top)

Codes: DES FSDR
Location: lon -5.696700, lat 53.655800, elev 10 ft / 3 m msl
Status: small_airport
Scheduled airline service: no
Links: Wikipedia Mobile

Weather (top)

Current conditions for Seychelles International Airport 127nm (236km) ENE (rec'd 2014/04/25 00:00Z):

FSIA 250000Z 20004KT 9999 FEW015CB SCT020 28/25 Q1010 NOSIG

Airport forecast for Seychelles International Airport 127nm (236km) ENE (rec'd 2014/04/24 12:00Z):

TAF FSIA 240939Z 2412/2512 22007KT 9999 SCT018 PROB40 
      TEMPO 2500/2509 -SHRA FEW014CB BKN016

Runways (top)

12/30: 4,531 x 33 ft (1,381 x 10 m) — paved — not lighted

Latest comments (top)

No comments yet for Desroches Airport

More... (top)

See also NOTAMs and nearby airports and navaids, or visit the Desroches Airport page at the main OurAirports website..